When you browse on this site, cookies collect data to enhance your experience and personalize the content and advertising you see.
Visit our Privacy Policy to learn more. By continuing to use the site, you agree to this use of cookies and data.
  • In Spain
  • List of Countries
  • For 7 days
  • Water Temperature
  • Weather Map
  • Weather Widgets
  • user-avatar
    Login

    Hourly Weather Yeovil

    Today, 10 April, Friday

    Time Temperature Precipitation Wind Pressure Humidity
    00:00 +8°C° 0 mm 4 mps 760 mmHg 86%
    01:00 +8°C° 0 mm 4 mps 760 mmHg 85%
    02:00 +9°C° 0 mm 3 mps 759 mmHg 84%
    03:00 +9°C° 0 mm 3 mps 759 mmHg 83%
    04:00 +8°C° 0 mm 3 mps 759 mmHg 85%
    05:00 +8°C° 0 mm 2 mps 759 mmHg 87%
    06:00 +8°C° 0 mm 3 mps 760 mmHg 88%
    07:00 +10°C° 0 mm 3 mps 760 mmHg 85%
    08:00 +12°C° 0 mm 3 mps 760 mmHg 82%
    09:00 +14°C° 0 mm 3 mps 760 mmHg 79%
    10:00 +15°C° 0 mm 4 mps 760 mmHg 77%
    11:00 +18°C° 0 mm 4 mps 760 mmHg 74%
    12:00 +19°C° 0 mm 4 mps 760 mmHg 72%
    13:00 +19°C° 0 mm 5 mps 759 mmHg 72%
    14:00 +19°C° 0 mm 5 mps 759 mmHg 71%
    15:00 +19°C° 0 mm 5 mps 759 mmHg 71%
    16:00 +17°C° 0 mm 4 mps 759 mmHg 75%
    17:00 +16°C° 0 mm 3 mps 758 mmHg 79%
    18:00 +14°C° 0 mm 3 mps 758 mmHg 83%
    19:00 +13°C° 0 mm 3 mps 759 mmHg 85%
    20:00 +11°C° 0 mm 3 mps 759 mmHg 88%
    21:00 +10°C° 0 mm 2 mps 759 mmHg 90%
    22:00 +10°C° 0 mm 2 mps 759 mmHg 91%
    23:00 +9°C° 0 mm 2 mps 759 mmHg 91%

    Tomorrow, 11 April, Saturday

    Time Temperature Precipitation Wind Pressure Humidity
    00:00 +9°C° 0 mm 2 mps 759 mmHg 92%
    01:00 +9°C° 0 mm 2 mps 759 mmHg 92%
    02:00 +10°C° 0 mm 1 mps 759 mmHg 91%
    03:00 +10°C° 0 mm 1 mps 758 mmHg 91%
    04:00 +10°C° 0 mm 1 mps 758 mmHg 91%
    05:00 +10°C° 0 mm 1 mps 759 mmHg 90%
    06:00 +10°C° 0 mm 1 mps 759 mmHg 90%
    07:00 +12°C° 0 mm 1 mps 759 mmHg 86%
    08:00 +14°C° 0 mm 1 mps 759 mmHg 82%
    09:00 +18°C° 0 mm 1 mps 759 mmHg 78%
    10:00 +19°C° 0.1 mm 1 mps 759 mmHg 75%
    11:00 +20°C° 0.1 mm 1 mps 759 mmHg 73%
    12:00 +21°C° 0.1 mm 1 mps 759 mmHg 70%
    13:00 +21°C° 0.4 mm 1 mps 759 mmHg 69%
    14:00 +21°C° 0.4 mm 1 mps 759 mmHg 67%
    15:00 +21°C° 0.4 mm 1 mps 758 mmHg 65%
    16:00 +20°C° 0.1 mm 1 mps 758 mmHg 72%
    17:00 +19°C° 0.1 mm 1 mps 758 mmHg 78%
    18:00 +18°C° 0.1 mm 1 mps 758 mmHg 84%
    19:00 +15°C° 0.1 mm 1 mps 758 mmHg 85%
    20:00 +13°C° 0.1 mm 1 mps 758 mmHg 85%
    21:00 +12°C° 0.1 mm 1 mps 758 mmHg 85%
    22:00 +11°C° 0 mm 1 mps 758 mmHg 85%
    23:00 +11°C° 0 mm 1 mps 758 mmHg 85%

    Day after tomorrow, 12 April, Sunday

    Time Temperature Precipitation Wind Pressure Humidity
    00:00 +11°C° 0 mm 1 mps 758 mmHg 84%
    01:00 +9°C° 0 mm 0 mps 757 mmHg 85%
    02:00 +9°C° 0 mm 0 mps 757 mmHg 86%
    03:00 +9°C° 0 mm 0 mps 756 mmHg 86%
    04:00 +9°C° 0 mm 0 mps 756 mmHg 87%
    05:00 +10°C° 0 mm 1 mps 755 mmHg 87%
    06:00 +10°C° 0 mm 1 mps 755 mmHg 88%
    07:00 +12°C° 0 mm 1 mps 754 mmHg 85%
    08:00 +13°C° 0 mm 2 mps 754 mmHg 83%
    09:00 +15°C° 0 mm 2 mps 754 mmHg 81%
    10:00 +16°C° 0.2 mm 3 mps 753 mmHg 79%
    11:00 +16°C° 0.2 mm 3 mps 753 mmHg 78%
    12:00 +17°C° 0.2 mm 4 mps 752 mmHg 76%
    13:00 +17°C° 0.2 mm 4 mps 751 mmHg 77%
    14:00 +17°C° 0.2 mm 4 mps 750 mmHg 77%
    15:00 +17°C° 0.2 mm 4 mps 750 mmHg 78%
    16:00 +16°C° 0.1 mm 3 mps 749 mmHg 81%
    17:00 +14°C° 0.1 mm 3 mps 749 mmHg 84%
    18:00 +13°C° 0.1 mm 3 mps 748 mmHg 86%
    19:00 +13°C° 0.1 mm 2 mps 749 mmHg 88%
    20:00 +12°C° 0.1 mm 2 mps 749 mmHg 90%
    21:00 +11°C° 0.1 mm 1 mps 749 mmHg 92%
    22:00 +10°C° 0 mm 2 mps 749 mmHg 92%
    23:00 +10°C° 0 mm 3 mps 749 mmHg 92%

    13 April, Monday

    Time Temperature Precipitation Wind Pressure Humidity
    00:00 +10°C° 0 mm 4 mps 750 mmHg 91%
    01:00 +10°C° 0.1 mm 4 mps 750 mmHg 91%
    02:00 +9°C° 0.1 mm 5 mps 750 mmHg 92%
    03:00 +9°C° 0.1 mm 6 mps 750 mmHg 92%
    04:00 +9°C° 0.2 mm 6 mps 751 mmHg 91%
    05:00 +9°C° 0.2 mm 7 mps 752 mmHg 91%
    06:00 +9°C° 0.2 mm 8 mps 752 mmHg 90%
    07:00 +9°C° 0 mm 8 mps 753 mmHg 88%
    08:00 +8°C° 0 mm 9 mps 754 mmHg 85%
    09:00 +8°C° 0 mm 9 mps 755 mmHg 83%
    10:00 +10°C° 0 mm 9 mps 756 mmHg 80%
    11:00 +11°C° 0 mm 9 mps 756 mmHg 78%
    12:00 +11°C° 0 mm 10 mps 757 mmHg 75%
    13:00 +11°C° 0 mm 9 mps 757 mmHg 75%
    14:00 +12°C° 0 mm 9 mps 757 mmHg 74%
    15:00 +12°C° 0 mm 9 mps 757 mmHg 73%
    16:00 +10°C° 0 mm 8 mps 757 mmHg 73%
    17:00 +9°C° 0 mm 8 mps 758 mmHg 73%
    18:00 +8°C° 0 mm 7 mps 758 mmHg 73%
    19:00 +6°C° 0 mm 7 mps 759 mmHg 72%
    20:00 +5°C° 0 mm 7 mps 759 mmHg 71%
    21:00 +3°C° 0 mm 7 mps 760 mmHg 70%
    22:00 +2°C° 0 mm 7 mps 760 mmHg 72%
    23:00 0°C° 0 mm 7 mps 760 mmHg 75%

    14 April, Tuesday

    Time Temperature Precipitation Wind Pressure Humidity
    00:00 -1°C° 0 mm 6 mps 760 mmHg 77%
    01:00 -1°C° 0 mm 6 mps 760 mmHg 80%
    02:00 -2°C° 0 mm 6 mps 759 mmHg 82%
    03:00 -2°C° 0 mm 6 mps 759 mmHg 85%
    04:00 -2°C° 0 mm 6 mps 759 mmHg 86%
    05:00 -2°C° 0 mm 6 mps 759 mmHg 88%
    06:00 -2°C° 0 mm 6 mps 759 mmHg 90%
    07:00 +1°C° 0 mm 6 mps 759 mmHg 83%
    08:00 +3°C° 0 mm 6 mps 759 mmHg 77%
    09:00 +5°C° 0 mm 7 mps 759 mmHg 71%
    10:00 +6°C° 0 mm 7 mps 758 mmHg 69%
    11:00 +8°C° 0 mm 7 mps 758 mmHg 67%
    12:00 +10°C° 0 mm 6 mps 758 mmHg 65%
    13:00 +10°C° 0 mm 6 mps 757 mmHg 65%
    14:00 +11°C° 0 mm 7 mps 757 mmHg 65%
    15:00 +11°C° 0 mm 7 mps 756 mmHg 65%
    16:00 +10°C° 0 mm 6 mps 756 mmHg 68%
    17:00 +9°C° 0 mm 6 mps 756 mmHg 70%
    18:00 +8°C° 0 mm 5 mps 755 mmHg 73%
    19:00 +7°C° 0 mm 6 mps 755 mmHg 72%
    20:00 +4°C° 0 mm 6 mps 755 mmHg 71%
    21:00 +3°C° 0 mm 7 mps 755 mmHg 69%
    22:00 +2°C° 0 mm 7 mps 755 mmHg 73%
    23:00 +2°C° 0 mm 6 mps 755 mmHg 76%

    15 April, Wednesday

    Time Temperature Precipitation Wind Pressure Humidity
    00:00 +1°C° 0 mm 6 mps 755 mmHg 79%
    01:00 +1°C° 0 mm 6 mps 754 mmHg 84%
    02:00 +1°C° 0 mm 5 mps 754 mmHg 89%
    03:00 0°C° 0 mm 5 mps 753 mmHg 93%
    04:00 +1°C° 0 mm 5 mps 753 mmHg 93%
    05:00 +1°C° 0 mm 6 mps 753 mmHg 93%
    06:00 +1°C° 0 mm 6 mps 753 mmHg 93%
    07:00 +3°C° 0 mm 7 mps 753 mmHg 87%
    08:00 +5°C° 0 mm 7 mps 752 mmHg 80%
    09:00 +7°C° 0 mm 8 mps 752 mmHg 73%
    10:00 +9°C° 0 mm 8 mps 752 mmHg 70%
    11:00 +11°C° 0 mm 8 mps 752 mmHg 67%
    12:00 +12°C° 0 mm 8 mps 751 mmHg 63%
    13:00 +12°C° 0 mm 8 mps 751 mmHg 63%
    14:00 +14°C° 0 mm 7 mps 751 mmHg 63%
    15:00 +14°C° 0 mm 7 mps 750 mmHg 62%
    16:00 +12°C° 0 mm 7 mps 750 mmHg 66%
    17:00 +11°C° 0 mm 6 mps 750 mmHg 70%
    18:00 +10°C° 0 mm 5 mps 749 mmHg 73%
    19:00 +9°C° 0 mm 6 mps 749 mmHg 71%
    20:00 +8°C° 0 mm 6 mps 749 mmHg 69%
    21:00 +7°C° 0 mm 6 mps 749 mmHg 67%
    22:00 +5°C° 0 mm 6 mps 749 mmHg 70%
    23:00 +5°C° 0 mm 6 mps 749 mmHg 72%
    Show more